| 00-24 HOURS | 24-48 HOURS | 48-72 HOURS | 72-96 HOURS | 96-120 HOURS | Navigation Menu |
| Date/Time EST |
temperature °C |
Dew Point °C |
Humidity % |
Wind Speed km/h |
Wind Gust km/h |
Wind Direction |
Barometer mb |
Rain Today mm |
| 31/03:15am | 19.7 | 9.8 | 70 | 0.0 | 6.4 | 1016.80 | 3.0 | |
| 31/02:45am | 19.3 | 9.5 | 70 | 2.1 | 6.4 | 1016.80 | 2.8 | |
| 31/02:15am | 18.9 | 9.1 | 70 | 0.0 | 0.0 | 1017.21 | 0.0 | |
| 31/01:45am | 18.7 | 8.9 | 70 | 0.0 | 4.3 | 1017.38 | 0.0 | |
| 31/01:15am | 18.4 | 8.7 | 70 | 0.0 | 6.4 | 1017.31 | 0.0 | |
| 31/12:45am | 18.2 | 8.4 | 70 | 2.1 | 4.3 | 1017.41 | 0.0 | |
| 31/12:15am | 17.9 | 8.2 | 70 | 2.1 | 6.4 | 1017.24 | 0.0 | |
| 30/11:45pm | 17.7 | 8.0 | 70 | 0.0 | 6.4 | 1017.11 | 24.8 | |
| 30/11:15pm | 17.7 | 8.0 | 70 | 2.1 | 8.5 | 1016.97 | 24.8 | |
| 30/10:45pm | 17.6 | 7.9 | 70 | 4.3 | 12.9 | 1017.07 | 24.8 | |
| 30/10:15pm | 17.8 | 8.1 | 70 | 4.3 | 12.9 | 1017.31 | 24.6 | |
| 30/09:45pm | 18.1 | 8.3 | 70 | 4.3 | 10.6 | 1017.65 | 24.4 | |
| 30/09:15pm | 18.6 | 8.8 | 70 | 4.3 | 10.6 | 1018.05 | 24.0 | |
| 30/08:45pm | 19.0 | 8.9 | 69 | 2.1 | 6.4 | 1018.22 | 21.0 | |
| 30/08:15pm | 19.1 | 9.0 | 69 | 2.1 | 6.4 | 1018.32 | 18.8 | |
| 30/07:45pm | 19.2 | 9.1 | 69 | 0.0 | 0.0 | 1018.43 | 18.6 | |
| 30/07:15pm | 19.2 | 9.1 | 69 | 0.0 | 8.5 | 1018.56 | 18.2 | |
| 30/06:45pm | 19.2 | 9.1 | 69 | 2.1 | 8.5 | 1018.39 | 18.0 | |
| 30/06:15pm | 19.3 | 8.9 | 67 | 4.3 | 8.5 | 1017.65 | 17.2 | |
| 30/05:45pm | 19.6 | 9.2 | 67 | 4.3 | 10.6 | 1017.31 | 17.0 | |
| 30/05:15pm | 19.7 | 9.2 | 67 | 4.3 | 8.5 | 1017.58 | 15.8 | |
| 30/04:45pm | 19.7 | 9.3 | 67 | 2.1 | 10.6 | 1017.68 | 15.2 | |
| 30/04:15pm | 19.6 | 8.9 | 66 | 2.1 | 8.5 | 1017.58 | 14.4 | |
| 30/03:45pm | 19.6 | 8.8 | 66 | 2.1 | 10.6 | 1018.05 | 12.8 | |
| 30/03:15pm | 19.5 | 8.8 | 66 | 2.1 | 8.5 | 1018.29 | 9.8 | |
| 30/02:45pm | 19.4 | 8.4 | 65 | 4.3 | 6.4 | 1018.26 | 9.0 | |
| 30/02:15pm | 19.2 | 8.2 | 65 | 4.3 | 8.5 | 1018.66 | 9.0 | |
| 30/01:45pm | 19.1 | 8.4 | 66 | 2.1 | 6.4 | 1018.56 | 9.0 | |
| 30/01:15pm | 19.1 | 8.4 | 66 | 2.1 | 8.5 | 1018.76 | 8.8 | |
| 30/12:45pm | 19.2 | 8.5 | 66 | 0.0 | 0.0 | 1019.24 | 7.4 | |
| 30/12:15pm | 19.7 | 9.2 | 67 | 0.0 | 2.1 | 1019.48 | 5.0 | |
| 30/11:45am | 19.6 | 9.1 | 67 | 2.1 | 6.4 | 1019.24 | 4.0 | |
| 30/11:15am | 19.1 | 8.7 | 67 | 0.0 | 6.4 | 1019.34 | 3.8 | |
| 30/10:50am | 18.7 | 8.1 | 66 | 2.1 | 6.4 | 1019.31 | 3.6 | |
| 30/10:20am | 18.6 | 7.6 | 65 | 4.3 | 10.6 | 1019.07 | 3.4 | |
| 30/09:50am | 18.7 | 7.7 | 65 | 4.3 | 10.6 | 1019.10 | 3.2 | |
| 30/09:20am | 18.7 | 7.7 | 65 | 0.0 | 0.0 | 1019.54 | 2.0 | |
| 30/08:50am | 18.7 | 7.8 | 65 | 0.0 | 0.0 | 1019.24 | 0.6 | |
| 30/08:20am | 18.7 | 7.8 | 65 | 0.0 | 0.0 | 1018.90 | 0.2 | |
| 30/07:50am | 18.6 | 7.7 | 65 | 0.0 | 0.0 | 1018.32 | 0.0 | |
| 30/07:20am | 18.8 | 7.5 | 63 | 0.0 | 0.0 | 1018.16 | 0.0 | |
| 30/06:50am | 19.0 | 7.7 | 63 | 0.0 | 0.0 | 1018.29 | 0.0 | |
| 30/06:20am | 19.1 | 7.8 | 63 | 0.0 | 0.0 | 1018.49 | 0.0 | |
| 30/05:50am | 19.1 | 7.8 | 63 | 0.0 | 0.0 | 1018.43 | 0.0 | |
| 30/05:20am | 18.6 | 7.7 | 65 | 0.0 | 0.0 | 1018.70 | 0.0 | |
| 30/04:50am | 18.6 | 7.9 | 66 | 0.0 | 0.0 | 1018.26 | 0.0 | |
| 30/04:20am | 18.4 | 7.8 | 66 | 0.0 | 0.0 | 1018.26 | 0.0 | |
| 30/03:50am | 18.2 | 7.9 | 67 | 0.0 | 0.0 | 1018.32 | 0.0 | |
| 30/03:20am | 18.1 | 8.1 | 69 | 0.0 | 0.0 | 1018.32 | 0.0 | |
| 30/02:50am | 17.9 | 7.9 | 69 | 0.0 | 0.0 | 1018.63 | 0.0 |
| 00-24 HOURS | 24-48 HOURS | 48-72 HOURS | 72-96 HOURS | 96-120 HOURS | Navigation Menu |
| Date/Time EST |
temperature °C |
Dew Point °C |
Humidity % |
Wind Speed km/h |
Wind Gust km/h |
Wind Direction |
Barometer mb |
Rain Today mm |
| 30/03:20am | 18.1 | 8.1 | 69 | 0.0 | 0.0 | 1018.32 | 0.0 | |
| 30/02:50am | 17.9 | 7.9 | 69 | 0.0 | 0.0 | 1018.63 | 0.0 | |
| 30/02:20am | 17.9 | 8.2 | 70 | 0.0 | 0.0 | 1018.90 | 0.0 | |
| 30/01:50am | 18.1 | 8.4 | 70 | 0.0 | 0.0 | 1019.10 | 0.0 | |
| 30/01:20am | 18.2 | 8.5 | 70 | 0.0 | 0.0 | 1019.17 | 0.0 | |
| 30/12:50am | 18.2 | 8.7 | 71 | 0.0 | 0.0 | 1019.04 | 0.0 | |
| 30/12:20am | 18.2 | 9.0 | 73 | 0.0 | 0.0 | 1018.90 | 0.0 | |
| 29/11:50pm | 18.3 | 9.7 | 75 | 0.0 | 0.0 | 1018.97 | 0.0 | |
| 29/11:20pm | 18.6 | 9.6 | 74 | 0.0 | 0.0 | 1018.76 | 0.0 | |
| 29/10:50pm | 19.3 | 10.3 | 74 | 0.0 | 0.0 | 1018.76 | 0.0 | |
| 29/10:20pm | 20.0 | 10.7 | 73 | 0.0 | 0.0 | 1018.83 | 0.0 | |
| 29/09:50pm | 20.5 | 10.9 | 71 | 0.0 | 0.0 | 1018.73 | 0.0 | |
| 29/09:20pm | 20.7 | 10.8 | 70 | 0.0 | 0.0 | 1018.60 | 0.0 | |
| 29/08:50pm | 21.2 | 10.9 | 69 | 0.0 | 0.0 | 1018.02 | 0.0 | |
| 29/08:20pm | 21.5 | 11.2 | 69 | 0.0 | 0.0 | 1018.43 | 0.0 | |
| 29/07:50pm | 21.9 | 11.0 | 66 | 2.1 | 8.5 | 1018.43 | 0.0 | |
| 29/07:20pm | 22.4 | 10.8 | 63 | 2.1 | 10.6 | 1018.56 | 0.0 | |
| 29/06:50pm | 22.9 | 11.0 | 62 | 6.4 | 12.9 | 1018.73 | 0.0 | |
| 29/06:20pm | 23.8 | 11.5 | 61 | 4.3 | 12.9 | 1019.04 | 0.0 | |
| 29/05:50pm | 24.7 | 10.6 | 54 | 4.3 | 10.6 | 1019.20 | 0.0 | |
| 29/05:20pm | 25.6 | 10.6 | 51 | 2.1 | 12.9 | 1018.90 | 0.0 | |
| 29/04:50pm | 26.5 | 11.0 | 50 | 4.3 | 12.9 | 1019.41 | 0.0 | |
| 29/04:20pm | 26.9 | 11.0 | 49 | 4.3 | 12.9 | 1019.41 | 0.0 | |
| 29/03:50pm | 27.2 | 11.3 | 49 | 4.3 | 17.2 | 1019.71 | 0.0 | |
| 29/03:20pm | 26.9 | 11.0 | 49 | 4.3 | 15.0 | 1020.02 | 0.0 | |
| 29/02:50pm | 27.5 | 11.1 | 47 | 4.3 | 15.0 | 1020.19 | 0.0 | |
| 29/02:20pm | 27.8 | 10.5 | 45 | 6.4 | 21.4 | 1020.29 | 0.0 | |
| 29/01:50pm | 27.5 | 11.1 | 47 | 4.3 | 23.5 | 1020.66 | 0.0 | |
| 29/01:20pm | 27.0 | 11.1 | 49 | 4.3 | 15.0 | 1020.83 | 0.0 | |
| 29/12:50pm | 26.7 | 11.6 | 51 | 4.3 | 17.2 | 1021.27 | 0.0 | |
| 29/12:20pm | 26.0 | 11.4 | 53 | 2.1 | 8.5 | 1021.51 | 0.0 | |
| 29/11:50am | 24.7 | 11.6 | 58 | 2.1 | 12.9 | 1021.91 | 0.0 | |
| 29/11:20am | 24.9 | 11.1 | 55 | 4.3 | 12.9 | 1022.02 | 0.0 | |
| 29/10:50am | 24.5 | 11.1 | 57 | 4.3 | 10.6 | 1021.91 | 0.0 | |
| 29/10:20am | 23.5 | 11.2 | 61 | 4.3 | 15.0 | 1022.08 | 0.0 | |
| 29/09:50am | 22.3 | 10.8 | 63 | 0.0 | 10.6 | 1022.05 | 0.0 | |
| 29/09:20am | 20.6 | 9.5 | 65 | 2.1 | 10.6 | 1022.08 | 0.0 | |
| 29/08:50am | 18.3 | 6.8 | 62 | 0.0 | 0.0 | 1022.22 | 0.0 | |
| 29/08:20am | 16.3 | 5.6 | 65 | 0.0 | 0.0 | 1021.85 | 0.0 | |
| 29/07:50am | 14.5 | 4.2 | 66 | 0.0 | 0.0 | 1021.54 | 0.0 | |
| 29/07:20am | 13.6 | 3.9 | 69 | 0.0 | 0.0 | 1021.30 | 0.0 | |
| 29/06:50am | 19.4 | 7.2 | 59 | 0.0 | 0.0 | 1021.27 | 0.0 | |
| 29/06:20am | 19.4 | 7.2 | 59 | 0.0 | 0.0 | 1021.10 | 0.0 | |
| 29/05:50am | 19.4 | 7.2 | 59 | 0.0 | 0.0 | 1021.20 | 0.0 | |
| 29/05:20am | 19.4 | 7.2 | 59 | 0.0 | 0.0 | 1021.03 | 0.0 | |
| 29/04:50am | 19.4 | 7.2 | 59 | 0.0 | 0.0 | 1021.10 | 0.0 | |
| 29/04:20am | 19.4 | 7.2 | 59 | 0.0 | 0.0 | 1020.86 | 0.0 | |
| 29/03:50am | 19.4 | 7.2 | 59 | 0.0 | 0.0 | 1020.93 | 0.0 | |
| 29/03:20am | 19.4 | 7.2 | 59 | 0.0 | 0.0 | 1020.83 | 0.0 | |
| 29/02:50am | 19.4 | 7.2 | 59 | 0.0 | 0.0 | 1020.97 | 0.0 |
| 00-24 HOURS | 24-48 HOURS | 48-72 HOURS | 72-96 HOURS | 96-120 HOURS | Navigation Menu |
| Date/Time EST |
temperature °C |
Dew Point °C |
Humidity % |
Wind Speed km/h |
Wind Gust km/h |
Wind Direction |
Barometer mb |
Rain Today mm |
| 29/03:20am | 19.4 | 7.2 | 59 | 0.0 | 0.0 | 1020.83 | 0.0 | |
| 29/02:50am | 19.4 | 7.2 | 59 | 0.0 | 0.0 | 1020.97 | 0.0 | |
| 29/02:20am | 19.4 | 7.2 | 59 | 0.0 | 0.0 | 1021.03 | 0.0 | |
| 29/01:50am | 19.4 | 7.2 | 59 | 0.0 | 0.0 | 1021.24 | 0.0 | |
| 29/01:20am | 19.4 | 7.2 | 59 | 0.0 | 0.0 | 1021.34 | 0.0 | |
| 29/12:50am | 19.4 | 7.2 | 59 | 0.0 | 0.0 | 1021.27 | 0.0 | |
| 29/12:20am | 19.4 | 7.2 | 59 | 0.0 | 0.0 | 1021.07 | 0.0 | |
| 28/11:50pm | 19.4 | 7.2 | 59 | 0.0 | 0.0 | 1021.14 | 0.0 | |
| 28/11:20pm | 19.4 | 7.2 | 59 | 0.0 | 0.0 | 1021.03 | 0.0 | |
| 28/10:50pm | 19.4 | 7.2 | 59 | 0.0 | 0.0 | 1021.20 | 0.0 | |
| 28/10:20pm | 19.4 | 7.2 | 59 | 0.0 | 0.0 | 1021.07 | 0.0 | |
| 28/09:50pm | 19.4 | 7.2 | 59 | 0.0 | 0.0 | 1020.83 | 0.0 | |
| 28/09:20pm | 19.4 | 7.2 | 59 | 0.0 | 0.0 | 1020.66 | 0.0 | |
| 28/08:50pm | 19.4 | 7.2 | 59 | 0.0 | 0.0 | 1020.49 | 0.0 | |
| 28/08:20pm | 19.5 | 7.2 | 59 | 0.0 | 0.0 | 1020.36 | 0.0 | |
| 28/07:50pm | 20.9 | 7.5 | 55 | 0.0 | 0.0 | 1020.32 | 0.0 | |
| 28/07:20pm | 21.8 | 6.8 | 50 | 0.0 | 4.3 | 1020.22 | 0.0 | |
| 28/06:50pm | 23.1 | 7.2 | 47 | 0.0 | 4.3 | 1020.19 | 0.0 | |
| 28/06:20pm | 23.7 | 6.9 | 45 | 2.1 | 8.5 | 1020.22 | 0.0 | |
| 28/05:50pm | 23.8 | 7.4 | 46 | 2.1 | 6.4 | 1020.22 | 0.0 | |
| 28/05:20pm | 25.0 | 6.7 | 41 | 2.1 | 8.5 | 1020.29 | 0.0 | |
| 28/04:50pm | 25.3 | 6.9 | 41 | 2.1 | 8.5 | 1020.25 | 0.0 | |
| 28/04:20pm | 25.1 | 7.2 | 42 | 4.3 | 10.6 | 1020.22 | 0.0 | |
| 28/03:50pm | 25.1 | 6.3 | 39 | 2.1 | 17.2 | 1020.36 | 0.0 | |
| 28/03:20pm | 24.9 | 7.6 | 43 | 4.3 | 15.0 | 1020.49 | 0.0 | |
| 28/02:50pm | 24.9 | 8.0 | 45 | 2.1 | 10.6 | 1020.59 | 0.0 | |
| 28/02:20pm | 24.5 | 6.3 | 41 | 8.5 | 21.4 | 1020.73 | 0.0 | |
| 28/01:50pm | 24.8 | 7.8 | 45 | 2.1 | 15.0 | 1020.69 | 0.0 | |
| 28/01:20pm | 24.6 | 8.9 | 49 | 4.3 | 15.0 | 1020.80 | 0.0 | |
| 28/12:50pm | 24.1 | 9.2 | 51 | 0.0 | 12.9 | 1020.80 | 0.0 | |
| 28/12:20pm | 23.1 | 8.0 | 50 | 2.1 | 8.5 | 1020.83 | 0.0 | |
| 28/11:50am | 22.6 | 9.0 | 55 | 2.1 | 15.0 | 1021.03 | 0.0 | |
| 28/11:20am | 21.7 | 8.2 | 55 | 4.3 | 15.0 | 1020.80 | 0.0 | |
| 28/10:50am | 21.1 | 8.0 | 57 | 2.1 | 12.9 | 1020.73 | 0.0 | |
| 28/10:20am | 19.6 | 8.3 | 63 | 0.0 | 12.9 | 1020.56 | 0.0 | |
| 28/09:50am | 18.2 | 6.7 | 62 | 2.1 | 10.6 | 1020.36 | 0.0 | |
| 28/09:20am | 16.8 | 6.6 | 67 | 2.1 | 8.5 | 1020.36 | 0.0 | |
| 28/08:50am | 15.7 | 5.6 | 67 | 0.0 | 0.0 | 1020.09 | 0.0 | |
| 28/08:20am | 22.1 | 11.5 | 67 | 0.0 | 0.0 | 1019.85 | 0.0 | |
| 28/07:50am | 22.1 | 11.5 | 67 | 0.0 | 0.0 | 1019.51 | 0.0 | |
| 28/07:20am | 22.1 | 11.5 | 67 | 0.0 | 0.0 | 1019.07 | 0.0 | |
| 28/06:50am | 22.1 | 11.5 | 67 | 0.0 | 0.0 | 1018.56 | 0.0 | |
| 28/06:20am | 22.1 | 11.5 | 67 | 0.0 | 0.0 | 1018.26 | 0.0 | |
| 28/05:50am | 22.1 | 11.5 | 67 | 0.0 | 0.0 | 1017.88 | 0.0 | |
| 28/05:20am | 22.1 | 11.5 | 67 | 0.0 | 0.0 | 1017.75 | 0.0 | |
| 28/04:50am | 22.1 | 11.5 | 67 | 0.0 | 0.0 | 1017.27 | 0.0 | |
| 28/04:20am | 22.1 | 11.5 | 67 | 0.0 | 0.0 | 1016.97 | 0.0 | |
| 28/03:50am | 22.1 | 11.5 | 67 | 0.0 | 0.0 | 1016.70 | 0.0 | |
| 28/03:20am | 22.1 | 11.5 | 67 | 0.0 | 0.0 | 1016.46 | 0.0 | |
| 28/02:50am | 22.1 | 11.5 | 67 | 0.0 | 0.0 | 1016.46 | 0.0 |
| 00-24 HOURS | 24-48 HOURS | 48-72 HOURS | 72-96 HOURS | 96-120 HOURS | Navigation Menu |
| Date/Time EST |
temperature °C |
Dew Point °C |
Humidity % |
Wind Speed km/h |
Wind Gust km/h |
Wind Direction |
Barometer mb |
Rain Today mm |
| 28/03:20am | 22.1 | 11.5 | 67 | 0.0 | 0.0 | 1016.46 | 0.0 | |
| 28/02:50am | 22.1 | 11.5 | 67 | 0.0 | 0.0 | 1016.46 | 0.0 | |
| 28/02:20am | 22.1 | 11.5 | 67 | 0.0 | 0.0 | 1016.53 | 0.0 | |
| 28/01:50am | 22.1 | 11.5 | 67 | 0.0 | 0.0 | 1016.56 | 0.0 | |
| 28/01:20am | 22.1 | 11.5 | 67 | 0.0 | 0.0 | 1016.53 | 0.0 | |
| 28/12:50am | 22.1 | 11.5 | 67 | 0.0 | 0.0 | 1016.29 | 0.0 | |
| 28/12:20am | 22.1 | 11.5 | 67 | 0.0 | 0.0 | 1015.99 | 0.0 | |
| 27/11:50pm | 22.1 | 11.5 | 67 | 0.0 | 0.0 | 1015.85 | 0.0 | |
| 27/11:20pm | 22.1 | 11.5 | 67 | 0.0 | 0.0 | 1015.58 | 0.0 | |
| 27/10:50pm | 22.1 | 11.5 | 67 | 0.0 | 0.0 | 1015.28 | 0.0 | |
| 27/10:20pm | 22.1 | 11.5 | 67 | 0.0 | 0.0 | 1014.90 | 0.0 | |
| 27/09:50pm | 22.1 | 11.5 | 67 | 0.0 | 0.0 | 1014.73 | 0.0 | |
| 27/09:20pm | 22.1 | 11.5 | 67 | 0.0 | 0.0 | 1014.23 | 0.0 | |
| 27/08:50pm | 22.1 | 11.5 | 67 | 0.0 | 0.0 | 1013.75 | 0.0 | |
| 27/08:20pm | 22.1 | 11.5 | 67 | 0.0 | 0.0 | 1013.52 | 0.0 | |
| 27/07:50pm | 22.9 | 11.3 | 63 | 0.0 | 0.0 | 1013.21 | 0.0 | |
| 27/07:20pm | 24.1 | 11.8 | 61 | 0.0 | 6.4 | 1012.91 | 0.0 | |
| 27/06:50pm | 25.1 | 11.3 | 55 | 0.0 | 8.5 | 1012.97 | 0.0 | |
| 27/06:20pm | 26.0 | 11.7 | 54 | 4.3 | 15.0 | 1012.80 | 0.0 | |
| 27/05:50pm | 25.9 | 11.7 | 54 | 2.1 | 12.9 | 1012.80 | 0.0 | |
| 27/05:20pm | 26.2 | 11.6 | 53 | 2.1 | 12.9 | 1012.60 | 0.0 | |
| 27/04:50pm | 25.8 | 11.9 | 55 | 6.4 | 21.4 | 1012.64 | 0.0 | |
| 27/04:20pm | 25.2 | 11.3 | 55 | 6.4 | 21.4 | 1012.74 | 0.0 | |
| 27/03:50pm | 25.2 | 11.4 | 55 | 6.4 | 25.7 | 1012.91 | 0.0 | |
| 27/03:20pm | 25.5 | 11.3 | 54 | 2.1 | 12.9 | 1012.74 | 0.0 | |
| 27/02:50pm | 25.4 | 11.9 | 57 | 6.4 | 15.0 | 1012.70 | 0.0 | |
| 27/02:20pm | 25.1 | 11.6 | 57 | 4.3 | 19.3 | 1012.60 | 0.0 | |
| 27/01:50pm | 24.9 | 11.4 | 57 | 6.4 | 21.4 | 1012.67 | 0.0 | |
| 27/01:20pm | 25.2 | 11.0 | 54 | 10.6 | 21.4 | 1012.60 | 0.0 | |
| 27/12:50pm | 24.6 | 11.8 | 59 | 2.1 | 10.6 | 1012.57 | 0.0 | |
| 27/12:20pm | 23.6 | 11.9 | 63 | 4.3 | 19.3 | 1012.57 | 0.0 | |
| 27/11:50am | 24.0 | 12.0 | 62 | 4.3 | 19.3 | 1012.50 | 0.0 | |
| 27/11:20am | 23.4 | 12.1 | 65 | 2.1 | 12.9 | 1012.19 | 0.0 | |
| 27/10:50am | 23.2 | 11.6 | 63 | 4.3 | 17.2 | 1012.09 | 0.0 | |
| 27/10:20am | 21.9 | 11.0 | 66 | 6.4 | 15.0 | 1011.99 | 0.0 | |
| 27/09:50am | 20.6 | 9.2 | 63 | 8.5 | 21.4 | 1011.72 | 0.0 | |
| 27/09:20am | 19.9 | 8.3 | 62 | 6.4 | 12.9 | 1011.69 | 0.0 | |
| 27/08:50am | 19.1 | 7.8 | 63 | 4.3 | 10.6 | 1011.52 | 0.0 | |
| 27/08:20am | 18.8 | 7.5 | 63 | 0.0 | 10.6 | 1011.38 | 0.0 | |
| 27/07:50am | 18.2 | 7.3 | 65 | 0.0 | 0.0 | 1010.98 | 0.0 | |
| 27/07:20am | 20.6 | 11.2 | 73 | 0.0 | 0.0 | 1010.57 | 0.0 | |
| 27/06:50am | 20.6 | 11.2 | 73 | 0.0 | 0.0 | 1010.20 | 0.0 | |
| 27/06:20am | 20.6 | 11.2 | 73 | 0.0 | 0.0 | 1010.16 | 0.0 | |
| 27/05:50am | 20.6 | 11.2 | 73 | 0.0 | 0.0 | 1009.96 | 0.0 | |
| 27/05:20am | 20.6 | 11.2 | 73 | 0.0 | 0.0 | 1009.86 | 0.0 | |
| 27/04:50am | 20.6 | 11.2 | 73 | 0.0 | 0.0 | 1009.72 | 0.0 | |
| 27/04:20am | 20.6 | 11.2 | 73 | 0.0 | 0.0 | 1009.86 | 0.0 | |
| 27/03:50am | 20.6 | 11.2 | 73 | 0.0 | 0.0 | 1009.72 | 0.0 | |
| 27/03:20am | 20.6 | 11.2 | 73 | 0.0 | 0.0 | 1009.86 | 0.0 | |
| 27/02:50am | 20.6 | 11.2 | 73 | 0.0 | 0.0 | 1009.62 | 0.0 |
| 00-24 HOURS | 24-48 HOURS | 48-72 HOURS | 72-96 HOURS | 96-120 HOURS | Navigation Menu |
| Date/Time EST |
temperature °C |
Dew Point °C |
Humidity % |
Wind Speed km/h |
Wind Gust km/h |
Wind Direction |
Barometer mb |
Rain Today mm |
| 27/03:20am | 20.6 | 11.2 | 73 | 0.0 | 0.0 | 1009.86 | 0.0 | |
| 27/02:50am | 20.6 | 11.2 | 73 | 0.0 | 0.0 | 1009.62 | 0.0 | |
| 27/02:20am | 20.6 | 11.2 | 73 | 0.0 | 0.0 | 1009.72 | 0.0 | |
| 27/01:50am | 20.6 | 11.2 | 73 | 0.0 | 0.0 | 1009.76 | 0.0 | |
| 27/01:20am | 20.8 | 11.4 | 73 | 0.0 | 4.3 | 1010.03 | 0.0 | |
| 27/12:50am | 20.9 | 11.5 | 73 | 2.1 | 10.6 | 1010.03 | 0.0 | |
| 27/12:20am | 20.8 | 11.4 | 73 | 0.0 | 8.5 | 1010.10 | 0.0 | |
| 26/11:50pm | 20.6 | 11.5 | 74 | 4.3 | 12.9 | 1010.03 | 0.0 | |
| 26/11:20pm | 20.3 | 11.5 | 75 | 2.1 | 8.5 | 1010.03 | 0.0 | |
| 26/10:50pm | 20.4 | 11.6 | 75 | 4.3 | 10.6 | 1010.43 | 0.0 | |
| 26/10:20pm | 20.4 | 11.4 | 74 | 8.5 | 15.0 | 1010.64 | 0.0 | |
| 26/09:50pm | 20.5 | 11.4 | 74 | 8.5 | 23.5 | 1010.74 | 0.0 | |
| 26/09:20pm | 20.5 | 11.4 | 74 | 4.3 | 12.9 | 1011.01 | 0.0 | |
| 26/08:50pm | 20.9 | 11.3 | 71 | 0.0 | 8.5 | 1011.28 | 0.0 | |
| 26/08:20pm | 21.3 | 11.1 | 69 | 0.0 | 12.9 | 1011.28 | 0.0 | |
| 26/07:50pm | 21.9 | 11.0 | 66 | 4.3 | 15.0 | 1011.38 | 0.0 | |
| 26/07:20pm | 22.3 | 10.8 | 63 | 4.3 | 15.0 | 1011.48 | 0.0 | |
| 26/06:50pm | 23.0 | 10.4 | 59 | 4.3 | 21.4 | 1011.52 | 0.0 | |
| 26/06:20pm | 23.5 | 10.2 | 57 | 4.3 | 12.9 | 1011.75 | 0.0 | |
| 26/05:50pm | 23.7 | 9.7 | 54 | 6.4 | 19.3 | 1011.96 | 0.0 | |
| 26/05:20pm | 24.3 | 9.8 | 53 | 10.6 | 34.2 | 1012.13 | 0.0 | |
| 26/04:50pm | 24.9 | 10.4 | 53 | 10.6 | 27.8 | 1012.26 | 0.0 | |
| 26/04:20pm | 25.1 | 10.9 | 54 | 8.5 | 25.7 | 1012.33 | 0.0 | |
| 26/03:50pm | 25.2 | 11.0 | 54 | 12.9 | 29.9 | 1012.64 | 0.0 | |
| 26/03:20pm | 25.5 | 11.6 | 55 | 8.5 | 19.3 | 1012.87 | 0.0 | |
| 26/02:50pm | 25.8 | 12.2 | 57 | 2.1 | 21.4 | 1013.18 | 0.0 | |
| 26/02:20pm | 26.2 | 10.7 | 50 | 8.5 | 23.5 | 1013.48 | 0.0 | |
| 26/01:50pm | 25.7 | 10.7 | 51 | 8.5 | 25.7 | 1013.89 | 0.0 | |
| 26/01:20pm | 25.4 | 10.9 | 53 | 10.6 | 23.5 | 1014.13 | 0.0 | |
| 26/12:50pm | 25.8 | 10.8 | 51 | 8.5 | 29.9 | 1014.19 | 0.0 | |
| 26/12:20pm | 25.0 | 10.8 | 54 | 6.4 | 23.5 | 1014.43 | 0.0 | |
| 26/11:50am | 25.1 | 10.9 | 54 | 6.4 | 32.1 | 1014.84 | 0.0 | |
| 26/11:20am | 23.9 | 11.6 | 61 | 8.5 | 21.4 | 1015.01 | 0.0 | |
| 26/10:50am | 23.2 | 11.9 | 65 | 10.6 | 21.4 | 1015.28 | 0.0 | |
| 26/10:20am | 22.1 | 10.8 | 65 | 4.3 | 12.9 | 1015.38 | 0.0 | |
| 26/09:50am | 21.1 | 10.2 | 66 | 4.3 | 12.9 | 1015.48 | 0.0 | |
| 26/09:20am | 19.3 | 9.2 | 69 | 4.3 | 10.6 | 1015.58 | 0.0 | |
| 26/08:50am | 18.0 | 8.2 | 70 | 4.3 | 10.6 | 1016.06 | 0.0 | |
| 26/08:20am | 15.9 | 6.3 | 70 | 0.0 | 0.0 | 1016.29 | 0.0 | |
| 26/07:50am | 13.3 | 3.4 | 67 | 0.0 | 0.0 | 1016.43 | 0.0 | |
| 26/07:20am | 11.9 | 2.1 | 67 | 0.0 | 0.0 | 1016.46 | 0.0 | |
| 26/06:50am | 14.3 | 5.9 | 75 | 0.0 | 0.0 | 1016.63 | 0.0 | |
| 26/06:20am | 14.3 | 5.9 | 75 | 0.0 | 0.0 | 1016.43 | 0.0 | |
| 26/05:50am | 14.3 | 5.9 | 75 | 0.0 | 0.0 | 1016.50 | 0.0 | |
| 26/05:20am | 14.3 | 5.9 | 75 | 0.0 | 0.0 | 1016.66 | 0.0 | |
| 26/04:50am | 14.3 | 5.9 | 75 | 0.0 | 0.0 | 1016.87 | 0.0 | |
| 26/04:20am | 14.3 | 5.9 | 75 | 0.0 | 0.0 | 1016.87 | 0.0 | |
| 26/03:50am | 14.3 | 5.9 | 75 | 0.0 | 0.0 | 1016.94 | 0.0 | |
| 26/03:20am | 14.3 | 5.9 | 75 | 0.0 | 0.0 | 1016.94 | 0.0 | |
| 26/02:50am | 14.3 | 5.9 | 75 | 0.0 | 0.0 | 1017.21 | 0.0 |
| 00-24 HOURS | 24-48 HOURS | 48-72 HOURS | 72-96 HOURS | 96-120 HOURS | Navigation Menu |
Page updated 31/08/2026 3:15:06 AM
powered by
Cumulus
v1.9.4 (10992)